Minneapolis, MN

10:22 PM CST on December 11, 2017 (GMT -0600)
Minneapolis-Saint Paul International

Weather History for KMSP - June, 2014

Change the Weather History Date:

Thursday, June 19, 2014

  Actual Average Record
Temperature  
Mean Temperature 70 °F 70 °F  
Max Temperature 74 °F 80 °F 100 °F (1933)
Min Temperature 65 °F 60 °F 41 °F (1950)
Degree Days  
Heating Degree Days 0 1  
Month to date heating degree days 20 38  
Since 1 June heating degree days 20 38  
Since 1 July heating degree days 8596 7574  
Cooling Degree Days 5 6  
Month to date cooling degree days 69 79  
Year to date cooling degree days 121 121  
Since 1 June cooling degree days 69 79  
Growing Degree Days 18 (Base 50)    
Moisture  
Dew Point 65 °F    
Average Humidity 87    
Maximum Humidity 100    
Minimum Humidity 73    
Precipitation  
Precipitation 4.13 in 0.15 in 4.13 in (2014)
Month to date precipitation 10.76 2.64  
Year to date precipitation 25.23 12.22  
Snow  
Snow 0.00 in 0.00 in 0.00 in ()
Month to date snowfall 0.0 0.0  
Since 1 June snowfall 0.0 0.0  
Since 1 July snowfall 69.8 54.4  
Snow Depth 0.00 in    
Sea Level Pressure  
Sea Level Pressure 29.95 in    
Wind  
Wind Speed 12 mph (East)    
Max Wind Speed 28 mph    
Max Gust Speed 34 mph    
Visibility 6 miles    
Events Fog , Rain , Thunderstorm    
T = Trace of Precipitation, MM = Missing Value Source: NWS Daily Summary

Daily Weather History Graph

Daily Weather History Graph

Search for Another Location

Airport or City:

Trip Planner

Search our weather history database for the weather conditions in past years. The results will help you decide how hot, cold, wet, or windy it might be!

Date:

Astronomy

Jun. 19, 2014 Rise Set
Actual Time 5:26 AM CDT 9:02 PM CDT
Civil Twilight 4:48 AM CDT 9:39 PM CDT
Nautical Twilight 3:59 AM CDT 10:29 PM CDT
Astronomical Twilight 2:54 AM CDT 11:34 PM CDT
Moon 12:49 AM CDT (6/19) 1:15 PM CDT (6/19)
Length of Visible Light 16h 50m
Length of Day
15h 36m
Waning Gibbous, 51% of the Moon is Illuminated
Jun 19
Waning Gibbous
Jun 19
Last Quarter
Jun 27
New
Jul 5
First Quarter
Jul 12
Full

Hourly Weather History & Observations

Time (CDT) Temp. Dew Point Humidity Pressure Visibility Wind Dir Wind Speed Gust Speed Precip Events Conditions
12:53 AM 73.4 °F 64.4 °F 73% 29.91 in 10.0 mi East 16.1 mph 25.3 mph N/A   Overcast
1:53 AM 71.6 °F 64.4 °F 78% 29.89 in 10.0 mi East 19.6 mph 28.8 mph N/A   Overcast
2:21 AM 71.1 °F 64.0 °F 78% 29.86 in 10.0 mi East 21.9 mph 29.9 mph N/A   Overcast
2:53 AM 71.1 °F 64.0 °F 78% 29.86 in 10.0 mi East 21.9 mph 28.8 mph N/A   Overcast
3:01 AM 71.1 °F 63.0 °F 75% 29.90 in 10.0 mi East 17.3 mph 31.1 mph N/A Thunderstorm Overcast
3:29 AM 69.1 °F 64.9 °F 87% 29.95 in 3.0 mi SSE 5.8 mph - 0.11 in Rain , Thunderstorm Thunderstorms and Rain
3:36 AM 68.0 °F 64.9 °F 90% 29.90 in 1.8 mi ENE 10.4 mph - 0.23 in Rain , Thunderstorm Heavy Thunderstorms and Rain
3:41 AM 66.2 °F 66.2 °F 100% 29.89 in 1.2 mi ENE 10.4 mph - 0.37 in Rain , Thunderstorm Heavy Rain
3:49 AM 66.2 °F 66.2 °F 100% 29.91 in 2.0 mi NE 9.2 mph - 0.44 in Rain , Thunderstorm Rain
3:53 AM 66.9 °F 66.0 °F 97% 29.93 in 4.0 mi Variable 3.5 mph - 0.45 in Rain , Thunderstorm Light Thunderstorms and Rain
4:06 AM 66.9 °F 64.9 °F 93% 29.95 in 1.8 mi NE 9.2 mph - 0.02 in Rain , Thunderstorm Heavy Thunderstorms and Rain
4:09 AM 66.9 °F 64.9 °F 93% 29.93 in 0.8 mi NE 13.8 mph - 0.12 in Rain , Thunderstorm Heavy Thunderstorms and Rain
4:16 AM 66.0 °F 64.9 °F 96% 29.90 in 0.8 mi NNE 18.4 mph - 0.46 in Rain , Thunderstorm Heavy Thunderstorms and Rain
4:20 AM 66.0 °F 64.9 °F 96% 29.91 in 1.0 mi NE 13.8 mph - 0.58 in Rain , Thunderstorm Heavy Thunderstorms and Rain
4:22 AM 66.0 °F 66.0 °F 100% 29.92 in 1.2 mi ENE 12.7 mph - 0.62 in Rain , Thunderstorm Heavy Thunderstorms and Rain
4:25 AM 66.0 °F 66.0 °F 100% 29.89 in 1.8 mi NE 19.6 mph - 0.67 in Rain , Thunderstorm Heavy Thunderstorms and Rain
4:35 AM 66.0 °F 66.0 °F 100% 29.94 in 3.0 mi NNW 12.7 mph - 0.71 in Rain , Thunderstorm Light Thunderstorms and Rain
4:53 AM 66.2 °F 66.2 °F 100% 29.96 in 5.0 mi NW 13.8 mph - N/A Rain , Thunderstorm Light Thunderstorms and Rain
5:00 AM 66.0 °F 66.0 °F 100% 29.98 in 5.0 mi WNW 5.8 mph - 0.02 in Rain , Thunderstorm Light Thunderstorms and Rain
5:06 AM 66.0 °F 66.0 °F 100% 29.97 in 1.5 mi Variable 3.5 mph - 0.04 in Rain , Thunderstorm Heavy Thunderstorms and Rain
5:12 AM 66.0 °F 64.9 °F 96% 29.96 in 1.0 mi ENE 10.4 mph - 0.27 in Rain , Thunderstorm Heavy Thunderstorms and Rain
5:19 AM 66.0 °F 64.9 °F 96% 29.96 in 1.0 mi East 11.5 mph - 0.50 in Rain , Thunderstorm Heavy Thunderstorms and Rain
5:36 AM 64.9 °F 64.9 °F 100% 29.90 in 2.5 mi ENE 24.2 mph - 0.94 in Rain , Thunderstorm Thunderstorms and Rain
5:41 AM 64.4 °F 64.4 °F 100% 29.91 in 4.0 mi East 20.7 mph - N/A Rain , Thunderstorm Thunderstorms and Rain
5:50 AM 66.2 °F 64.4 °F 94% 29.91 in 7.0 mi East 17.3 mph - 0.96 in Rain , Thunderstorm Light Rain
5:53 AM 66.0 °F 64.9 °F 96% 29.89 in 7.0 mi East 18.4 mph - 0.96 in Rain , Thunderstorm Light Rain
6:08 AM 66.9 °F 64.9 °F 93% 29.91 in 10.0 mi East 21.9 mph - 0.02 in Rain Light Rain
6:27 AM 66.9 °F 64.9 °F 93% 29.92 in 8.0 mi East 19.6 mph - 0.03 in Rain , Thunderstorm Light Rain
6:51 AM 66.2 °F 64.4 °F 94% 29.93 in 10.0 mi East 19.6 mph 26.5 mph 0.04 in Rain , Thunderstorm Light Thunderstorms and Rain
6:53 AM 66.0 °F 64.9 °F 96% 29.93 in 9.0 mi East 21.9 mph 28.8 mph 0.04 in Rain , Thunderstorm Light Thunderstorms and Rain
7:06 AM 66.9 °F 64.9 °F 93% 29.98 in 5.0 mi East 10.4 mph - 0.02 in Rain , Thunderstorm Rain
7:16 AM 66.0 °F 64.9 °F 96% 29.99 in 5.0 mi East 17.3 mph - 0.04 in Rain , Thunderstorm Thunderstorms and Rain
7:46 AM 66.0 °F 64.0 °F 93% 29.94 in 8.0 mi East 20.7 mph 28.8 mph 0.11 in Rain Light Rain
7:53 AM 66.0 °F 64.0 °F 93% 29.94 in 9.0 mi East 16.1 mph - 0.11 in Rain Light Rain
8:30 AM 66.0 °F 64.0 °F 93% 29.98 in 10.0 mi East 11.5 mph - 0.00 in Rain Light Rain
8:44 AM 66.0 °F 64.0 °F 93% 30.00 in 10.0 mi Variable 6.9 mph 18.4 mph 0.00 in Rain , Thunderstorm Light Rain
8:53 AM 66.0 °F 64.0 °F 93% 30.08 in 3.0 mi WSW 11.5 mph - 0.01 in Rain , Thunderstorm Thunderstorms and Rain
8:55 AM 66.0 °F 64.0 °F 93% 30.09 in 1.2 mi West 16.1 mph 20.7 mph 0.01 in Rain , Thunderstorm Heavy Thunderstorms and Rain
9:00 AM 64.9 °F 64.0 °F 97% 30.10 in 0.2 mi Variable 6.9 mph 20.7 mph 0.25 in Fog , Rain , Thunderstorm Heavy Thunderstorms and Rain
9:08 AM 64.9 °F 64.9 °F 100% 30.04 in 0.2 mi East 12.7 mph - 0.72 in Fog , Rain , Thunderstorm Heavy Thunderstorms and Rain
9:11 AM 64.9 °F 64.9 °F 100% 30.03 in 0.5 mi ENE 12.7 mph - 0.88 in Fog , Rain , Thunderstorm Heavy Thunderstorms and Rain
9:15 AM 64.9 °F 64.9 °F 100% 30.04 in 1.2 mi ENE 11.5 mph - 1.00 in Rain , Thunderstorm Heavy Thunderstorms and Rain
9:21 AM 64.4 °F 64.4 °F 100% 30.05 in 2.0 mi East 11.5 mph - N/A Rain , Thunderstorm Heavy Thunderstorms and Rain
9:28 AM 64.9 °F 64.0 °F 97% 30.03 in 4.0 mi ENE 16.1 mph - 1.16 in Rain , Thunderstorm Heavy Rain
10:14 AM 64.9 °F 64.0 °F 97% 30.02 in 3.0 mi NE 11.5 mph - 0.13 in Rain Heavy Rain
10:45 AM 64.9 °F 64.0 °F 97% 30.03 in 6.0 mi East 8.1 mph - 0.20 in Rain , Thunderstorm Light Thunderstorms and Rain
10:53 AM 64.9 °F 64.0 °F 97% 30.06 in 6.0 mi Variable 3.5 mph - 0.22 in Rain , Thunderstorm Thunderstorms and Rain
10:58 AM 64.9 °F 64.0 °F 97% 30.07 in 6.0 mi Variable 5.8 mph - 0.01 in Rain , Thunderstorm Thunderstorms and Rain
11:04 AM 64.9 °F 64.0 °F 97% 30.04 in 2.0 mi NE 10.4 mph - 0.03 in Rain , Thunderstorm Thunderstorms and Rain
11:06 AM 64.9 °F 64.0 °F 97% 30.04 in 1.2 mi NE 9.2 mph - 0.04 in Rain , Thunderstorm Heavy Thunderstorms and Rain
11:15 AM 64.9 °F 64.0 °F 97% 30.02 in 1.5 mi ENE 12.7 mph - 0.12 in Rain , Thunderstorm Heavy Thunderstorms and Rain
11:26 AM 64.4 °F 64.4 °F 100% 29.97 in 8.0 mi ENE 20.7 mph - N/A Rain Light Rain
11:44 AM 64.9 °F 64.0 °F 97% 29.94 in 9.0 mi East 23.0 mph 29.9 mph 0.16 in   Overcast
11:53 AM 66.0 °F 64.9 °F 96% 29.92 in 10.0 mi East 20.7 mph 28.8 mph 0.16 in   Overcast
12:07 PM 66.9 °F 64.9 °F 93% 29.92 in 10.0 mi East 27.6 mph 34.5 mph N/A   Mostly Cloudy
12:53 PM 69.1 °F 64.9 °F 87% 29.91 in 10.0 mi ESE 20.7 mph 26.5 mph N/A   Overcast
1:06 PM 69.1 °F 64.9 °F 87% 29.93 in 10.0 mi SE 17.3 mph 29.9 mph N/A   Overcast
1:47 PM 69.8 °F 64.4 °F 83% 29.92 in 10.0 mi ESE 17.3 mph 24.2 mph N/A   Overcast
1:53 PM 71.1 °F 64.9 °F 81% 29.91 in 10.0 mi ESE 16.1 mph - N/A   Overcast
2:05 PM 71.1 °F 64.9 °F 81% 29.91 in 10.0 mi ESE 17.3 mph - N/A   Overcast
2:22 PM 72.0 °F 64.9 °F 78% 29.90 in 10.0 mi ESE 23.0 mph 28.8 mph N/A   Mostly Cloudy
2:53 PM 73.0 °F 66.0 °F 79% 29.91 in 10.0 mi SE 17.3 mph 26.5 mph N/A   Mostly Cloudy
3:05 PM 73.0 °F 66.0 °F 79% 29.92 in 10.0 mi SE 20.7 mph 26.5 mph N/A   Overcast
3:53 PM 73.9 °F 66.0 °F 76% 29.94 in 10.0 mi SSE 16.1 mph - N/A   Overcast
4:39 PM 73.0 °F 66.0 °F 79% 29.96 in 10.0 mi SSE 11.5 mph - N/A   Overcast
4:53 PM 73.0 °F 66.0 °F 79% 29.95 in 10.0 mi SSE 11.5 mph - N/A Thunderstorm Overcast
5:18 PM 73.0 °F 66.9 °F 81% 29.93 in 10.0 mi ESE 10.4 mph - N/A Thunderstorm Thunderstorm
5:51 PM 71.6 °F 68.0 °F 88% 29.94 in 1.8 mi SSE 10.4 mph - 0.01 in Rain , Thunderstorm Thunderstorms and Rain
5:53 PM 71.1 °F 68.0 °F 90% 29.94 in 3.0 mi SE 10.4 mph - 0.01 in Rain , Thunderstorm Thunderstorms and Rain
6:32 PM 70.0 °F 69.1 °F 97% 29.92 in 10.0 mi ESE 10.4 mph - 0.05 in Rain Light Rain
6:53 PM 70.0 °F 68.0 °F 93% 29.92 in 5.0 mi SSE 12.7 mph - 0.05 in Rain Light Rain
7:53 PM 66.9 °F 64.9 °F 93% 29.91 in 6.0 mi ESE 11.5 mph - 0.10 in Rain Rain
8:53 PM 69.1 °F 66.0 °F 90% 29.94 in 10.0 mi West 4.6 mph - 0.02 in   Overcast
9:06 PM 68.0 °F 66.0 °F 93% 29.94 in 10.0 mi Calm Calm - N/A   Overcast
9:53 PM 68.0 °F 66.9 °F 96% 29.95 in 10.0 mi SE 4.6 mph - N/A   Overcast
10:37 PM 68.0 °F 66.0 °F 93% 29.95 in 10.0 mi ESE 6.9 mph - N/A   Mostly Cloudy
10:53 PM 68.0 °F 66.0 °F 93% 29.95 in 10.0 mi East 6.9 mph - N/A   Scattered Clouds
11:53 PM 66.9 °F 66.0 °F 97% 29.95 in 10.0 mi ESE 6.9 mph - N/A   Scattered Clouds